User: anonymous   Login
Location: Unspecified
(0.0000°N, 0.0000°E)
Time: 22:34:52
(UTC+00:00)
Language:

STARLINK-6342 - Orbit

View from above orbital plane
View from above orbital plane
View from above satellite
View from above satellite

Ground track
Ground track

The orbit is defined by the following mean orbital elements,

1 56770U          26145.37415552 +.00000000 +00000-0 +42857-5 0 00009
2 56770  69.9984 171.1100 0003730 267.7787  92.2945 14.98331302    05
Epoch (UTC): 25 May 2026 08:58:47
Eccentricity: 0.0003730
inclination: 69.9984°
perigee height: 569 km
apogee height: 575 km
right ascension of ascending node: 171.1100°
argument of perigee: 267.7787°
revolutions per day: 14.98331302
mean anomaly at epoch: 92.2945°

The dashed part of the orbit path shows where the satellite is in the earth's shadow,  

DLR